カタログに戻る

SL-14 R/B

運用中LEO
NORAD 15822·ROCKET BODY·🇷🇺 Russia

打ち上げ Jun 14, 1985 から Plesetsk Cosmodrome

Loading…

次のパス (今後24時間)

TLE

最新Source: Space-Track

元期: Sep 14, 2026, 04:42 UTC

1 15822U 85047B   26257.19635215 -.00000024  00000-0 -51907-4 0  9990
2 15822  73.6244  46.2695 0025680 283.2723 249.0509 12.41278148869310

AllMySatでSL-14 R/Bをリアルタイム追跡

Download on the App Store